Regional Weather Roundup
Issued by NWS

Home | Current Version | Previous Version | Graphics & Text | Print | Product List | Glossary On
Versions: 1 2 3 4 5 6 7 8 9 10 11 12 13 14 15 16 17 18 19 20 21 22 23 24 25 26 27 28 29 30 31 32 33 34 35 36 37 38 39 40 41 42 43 44 45 46 47 48 49 50
000
ASUS43 KBIS 191102
RWRND

NORTH DAKOTA REGIONAL WEATHER ROUNDUP
NATIONAL WEATHER SERVICE BISMARCK ND
500 AM CST SUN FEB 19 2017

NOTE: "FAIR" INDICATES FEW OR NO CLOUDS BELOW 12,000 FEET WITH NO
SIGNIFICANT WEATHER AND/OR OBSTRUCTIONS TO VISIBILITY.


NDZ001>003-009>011-017-191200-
NORTHWEST NORTH DAKOTA

CITY           SKY/WX    TMP DP  RH WIND       PRES   REMARKS
WILLISTON      FAIR      33  30  88 E8        29.60F
MINOT          FAIR      32  29  88 E9        29.65F
$$

NDZ018>021-031>035-040>046-191200-
SOUTHWEST NORTH DAKOTA

CITY           SKY/WX    TMP DP  RH WIND       PRES   REMARKS
BISMARCK       FAIR      35  32  88 E8        29.62F
DICKINSON      FOG       29  28  96 E8        29.53F VSB 1/4
GARRISON         N/A     33  31  92 E12       29.61F
HETTINGER ARPT CLOUDY    31  29  92 CALM      29.56R
$$

NDZ004>008-012>016-024-026-027-054-191200-
NORTHEAST NORTH DAKOTA

CITY           SKY/WX    TMP DP  RH WIND       PRES   REMARKS
GRAND FORKS    CLOUDY    35  29  78 E10       29.80F
GRND FRKS AFB  CLOUDY    33  31  93 E7        29.80F
DEVILS LAKE    CLOUDY    35  30  82 E21       29.73F
$$

NDZ022-023-025-028>030-036>039-047>053-191200-
SOUTHEAST NORTH DAKOTA

CITY           SKY/WX    TMP DP  RH WIND       PRES   REMARKS
FARGO          CLOUDY    38  35  89 E9        29.78F
JAMESTOWN      FAIR      35  34  96 E9        29.69F
$$





USA.gov is the U.S. government's official web portal to all federal, state and local government web resources and services.